sat.trackr.live / text

‹ back to catalog

STARLINK-2738

NORAD 48668 · 2021-044AG

PAYLOAD ACTIVE UNKNOWN

§ Identity

Operator
Country
US
Launch date
2021-05-26
Launch site
AFETR
Launch vehicle
Mass (kg)
RCS (m²)

Purposes: comms

External: N2YO · Heavens-Above · Gunter

§ Orbital elements

Epoch: 2026-09-19T16:13:42.619872Z

Period
94.01 min
Inclination
53.1605°
Eccentricity
0.0001031
Mean motion
15.31707005 rev/d
Perigee alt
470.0 km
Apogee alt
471.4 km
Semi-major
6,848.9 km
B*
-8.0448e-6
RAAN
281.1735°
Arg perigee
71.8621°
Mean anomaly
288.2492°
Rev number
29,369

§ Raw data

STARLINK-27381 48668U 21044AG  26262.67618773 -.00000615  00000+0 -80448-5 0  99982 48668  53.1605 281.1735 0001031  71.8621 288.2492 15.31707005293694

JSON: /api/v1/satellites/48668 · /tle

For live sub-satellite position, see the globe view (requires WebGL).

§ Visibility from observer

Set your observer location to see the next 7 days of passes ≥ 10°. The values pass through the URL so the page stays shareable.

No JS? Fill the form by hand. The geolocation button needs JavaScript.